• Join FlightAware (Why Join?)
  • Login
  • US Flag GB Flag 
03:31 EDT


 

Airport Tracker/Info


-or-


 

Live Flight TrackerFlight Track Log ✈ UCA597 ✈ 16-Sep-2013 ✈ KIAD - KBGM

Flight Track Log - Related Links

Times and Time Zones

All times are in EDT time to prevent confusion due to time zone crossing. See the UCA597 flight status page for this flight to view local times or setup timezone preferences in your user account.

Time Position Orientation Groundspeed Altitude Reporting Facility
EDT Latitude Longitude Course Direction KTS MPH feet Rate Location/Type
21:35 38.9500 -77.5000 19° North 136 157 1,700  Level Potomac TRACON
21:36 39.0000 -77.5333 333° Northwest 173 199 3,000 1,380 Climbing Potomac TRACON
21:37 39.0333 -77.5500 339° North 174 200 4,500 1,500 Climbing Potomac TRACON
21:38 39.0833 -77.5333 15° North 167 192 6,200 1,380 Climbing Potomac TRACON
21:40 39.1583 -77.5269 North 168 193 8,600 1,260 Climbing Washington Center
21:41 38.9795 -77.4461 19° North  Level Estimated
21:41 39.2022 -77.5200 North 163 188 9,700  Level Washington Center
21:42 39.2461 -77.5133 North 163 188 10,900 1,140 Climbing Washington Center
21:43 39.2922 -77.5064 North 158 182 12,000 1,260 Climbing Washington Center
21:44 39.3381 -77.4994 North 164 189 13,400 1,380 Climbing Washington Center
21:45 39.3797 -77.4953 North 159 183 14,800 1,200 Climbing Washington Center
21:46 39.4217 -77.4883 North 159 183 15,900 840 Climbing Washington Center
21:48 39.5206 -77.4756 North 162 186 17,500 720 Climbing New York Center
21:49 39.5711 -77.4669 North 167 192 18,100 720 Climbing New York Center
21:50 39.6239 -77.4558 North 172 198 19,000 420 Climbing New York Center
21:51 39.6761 -77.4525 North 191 220 19,000  Level New York Center
21:52 39.7428 -77.4536 359° North 204 235 19,000  Level New York Center
21:53 39.7994 -77.4481 North 222 255 19,000  Level New York Center
21:54 39.8678 -77.4194 18° North 227 261 19,000  Level New York Center
21:55 39.9256 -77.3925 20° North 232 267 19,000  Level New York Center
21:56 39.9958 -77.3639 17° North 232 267 19,000  Level New York Center
21:57 40.0539 -77.3367 20° North 232 267 19,000  Level New York Center
21:58 40.1261 -77.3083 17° North 232 267 19,000  Level New York Center
21:59 40.1839 -77.2839 18° North 237 273 19,000 -180 Level New York Center
22:00 40.2544 -77.2522 19° North 237 273 18,700 -540 Descending New York Center
22:01 40.3119 -77.2278 18° North 237 273 18,000 -360 Descending New York Center
22:02 40.3847 -77.1964 18° North 247 284 18,000  Level New York Center
22:03 40.4422 -77.1717 18° North 242 278 18,000 -240 Level New York Center
22:04 40.5106 -77.1425 18° North 237 273 17,600 -720 Descending New York Center
22:05 40.5725 -77.1156 18° North 242 278 16,600 -1,140 Descending New York Center
22:06 40.6494 -77.0817 18° North 250 288 15,400 -840 Descending New York Center
22:07 40.7089 -77.0569 17° North 250 288 15,000 -240 Descending New York Center
22:08 40.7731 -77.0272 19° North 250 288 15,000  Level New York Center
22:09 40.8328 -77.0025 17° North 239 275 15,000  Level New York Center
22:10 40.8969 -76.9725 19° North 229 264 15,000  Level New York Center
22:11 40.9522 -76.9503 17° North 223 257 15,000  Level New York Center
22:12 41.0119 -76.9225 19° North 223 257 15,000  Level New York Center
22:13 41.0739 -76.8953 18° North 228 262 15,000  Level New York Center
22:14 41.1336 -76.8675 19° North 228 262 15,000  Level New York Center
22:15 41.1956 -76.8400 18° North 228 262 15,000  Level New York Center
22:16 41.2572 -76.8125 19° North 228 262 15,000  Level New York Center
22:17 41.3211 -76.7850 18° North 228 262 15,000  Level New York Center
22:18 41.3814 -76.7461 26° Northeast 233 268 15,000  Level New York Center
22:19 41.4422 -76.6989 30° Northeast 239 275 15,000  Level New York Center
22:20 41.4986 -76.6514 32° Northeast 244 281 15,000 -180 Level New York Center
22:21 41.5572 -76.6067 30° Northeast 244 281 14,700 -660 Descending New York Center
22:22 41.6178 -76.5592 30° Northeast 249 287 13,700 -1,020 Descending New York Center
22:23 41.6703 -76.5053 37° Northeast 249 287 12,700 -1,200 Descending New York Center
22:24 41.7233 -76.4458 40° Northeast 249 287 11,300 -1,440 Descending New York Center
22:25 41.7781 -76.3867 39° Northeast 238 274 9,900 -1,440 Descending New York Center
22:26 41.8244 -76.3292 43° Northeast 228 262 8,500 -1,380 Descending New York Center
22:27 41.8731 -76.2719 41° Northeast 223 257 7,200 -1,380 Descending New York Center
22:28 41.9167 -76.2256 38° Northeast 223 257 5,800 -1,380 Descending New York Center
22:29 41.9628 -76.1736 40° Northeast 223 257 4,500 -900 Descending New York Center
22:30 42.0089 -76.1214 40° Northeast 207 238 4,000 -420 Descending New York Center
22:31 42.0428 -76.0656 51° Northeast 194 223 3,700 -240 Descending New York Center
22:32 42.0789 -76.0014 53° Northeast 199 229 3,600 -120 Descending New York Center
22:33 42.1136 -75.9650 38° Northeast 183 211 3,500 -300 Descending New York Center
22:34 42.1456 -75.9481 21° North 149 171 3,100 -600 Descending New York Center
22:35 42.1767 -75.9531 353° North 120 138 2,300 2,940 Descending New York Center
22:36 42.2039 -75.9469 North 120 138 9,000 6,660 Climbing New York Center
22:38 42.2084 -75.9796 281° West  Level Estimated
22:45 42.2084 -75.9796 35° Northeast  Level Estimated
22:46 42.2084 -75.9796 35° Northeast  Level Estimated
22:47 42.2084 -75.9796 35° Northeast  Level Estimated
22:48 42.2084 -75.9796 35° Northeast  Level Estimated
22:49 42.2084 -75.9796 35° Northeast  Level Estimated
22:50 42.2084 -75.9796 35° Northeast  Level Estimated
22:51 42.2084 -75.9796 35° Northeast  Level Estimated